Voltar ao catálogo

ARIANE 1 DEB

AtivoHEO
NORAD 25098·DEBRIS·🇫🇷 France

Lançado Dec 24, 1979 de Guiana Space Centre

Loading…

Próximas Passagens (próximas 24 horas)

TLE

AtualizadoSource: Space-Track

Época: Sep 14, 2026, 02:44 UTC

1 25098U 79104D   26257.11455812  .00000911  00000-0  22689-2 0  9994
2 25098  17.5138 221.0917 5351774 141.2055 273.0989  4.79412456447930

Acompanhe ARIANE 1 DEB em tempo real com AllMySat

Download on the App Store